This is the latest recevied weather packets stored in our database for station/object KE5VT. If no packets are shown the sender has not sent any weather packets the latest 10 day(s).
| Time | Temp. | Humidity | Pressure | Rain* | Wind** | Luminosity | Snow |
|---|---|---|---|---|---|---|---|
| 1787951177 | 31.67° C | 59% | 1012.3 hPa | 0 mm | - | 75 W/m² | - |
| 1787950873 | 31.67° C | 58% | 1012.4 hPa | 0 mm | - | 114 W/m² | - |
| 1787950568 | 31.11° C | 60% | 1012.2 hPa | 0 mm | - | 122 W/m² | - |
| 1787950264 | 31.11° C | 64% | 1012.1 hPa | 0 mm | - | 129 W/m² | - |
| 1787949960 | 30.56° C | 64% | 1012.1 hPa | 0 mm | - | 381 W/m² | - |
| 1787949660 | 30.56° C | 63% | 1012 hPa | 0 mm | - | 427 W/m² | - |
| 1787949354 | 31.11° C | 66% | 1012 hPa | 0 mm | - | 97 W/m² | - |
| 1787949049 | 30.56° C | 68% | 1012.1 hPa | 0 mm | - | 77 W/m² | - |
| 1787948745 | 31.11° C | 63% | 1012.1 hPa | 0 mm | - | 131 W/m² | - |
| 1787948440 | 31.11° C | 66% | 1012 hPa | 0 mm | - | 220 W/m² | - |
| 1787948135 | 30.56° C | 69% | 1012.2 hPa | 0 mm | - | 279 W/m² | - |
| 1787947835 | 30.56° C | 72% | 1012.2 hPa | 0 mm | - | 91 W/m² | - |
| 1787947533 | 30.56° C | 70% | 1012.3 hPa | 0 mm | - | 95 W/m² | - |
| 1787947229 | 30.56° C | 70% | 1012.5 hPa | 0 mm | - | 112 W/m² | - |
| 1787946927 | 30.56° C | 69% | 1012.5 hPa | 0 mm | - | 302 W/m² | - |
| 1787946626 | 31.11° C | 72% | 1012.6 hPa | 0 mm | - | 128 W/m² | - |
| 1787946321 | 30.56° C | 70% | 1012.4 hPa | 0 mm | - | 191 W/m² | - |
| 1787946021 | 31.11° C | 73% | 1012.5 hPa | 0 mm | - | 213 W/m² | - |
| 1787945720 | 31.11° C | 70% | 1012.4 hPa | 0 mm | - | 241 W/m² | - |
| 1787945416 | 30.56° C | 72% | 1012.7 hPa | 0 mm | - | 248 W/m² | - |
| 1787945112 | 29.44° C | 73% | 1012.6 hPa | 0 mm | - | 181 W/m² | - |
| 1787944809 | 29.44° C | 74% | 1012.6 hPa | 0 mm | - | 171 W/m² | - |
| 1787944504 | 30.56° C | 73% | 1012.8 hPa | 0 mm | - | 171 W/m² | - |
| 1787944199 | 30° C | 72% | 1012.8 hPa | 0 mm | - | 219 W/m² | - |
| 1787943899 | 29.44° C | 77% | 1012.9 hPa | 0 mm | - | 383 W/m² | - |
* Rain latest hour (hover to see other rain measurements)
** Current wind speed in m/s (hover to see current wind gust speed)